TimePDT,TemperatureF,Dew PointF,Humidity,Sea Level PressureIn,VisibilityMPH,Wind Direction,Wind SpeedMPH,Gust SpeedMPH,PrecipitationIn,Events,Conditions,WindDirDegrees,DateUTC
12:52 AM,64.9,37.9,37,29.94,-9999.0,East,4.6,-,N/A,,Unknown,90,2012-09-05 07:52:00
1:52 AM,66.0,39.0,37,29.93,-9999.0,NE,4.6,-,N/A,,Unknown,40,2012-09-05 08:52:00
2:52 AM,64.9,37.9,37,29.92,-9999.0,ENE,4.6,-,N/A,,Unknown,60,2012-09-05 09:52:00
3:52 AM,64.9,39.0,39,29.91,-9999.0,Variable,4.6,-,N/A,,Unknown,0,2012-09-05 10:52:00
4:52 AM,63.0,41.0,45,29.91,-9999.0,Calm,Calm,-,N/A,,Unknown,0,2012-09-05 11:52:00
5:52 AM,64.9,39.0,39,29.91,-9999.0,Calm,Calm,-,N/A,,Unknown,0,2012-09-05 12:52:00
6:52 AM,64.0,37.9,38,29.94,-9999.0,NE,6.9,-,N/A,,Unknown,50,2012-09-05 13:52:00
7:52 AM,75.0,34.0,22,29.94,-9999.0,NE,3.5,-,N/A,,Unknown,50,2012-09-05 14:52:00
8:52 AM,80.1,24.1,13,29.92,-9999.0,South,6.9,-,N/A,,Unknown,190,2012-09-05 15:52:00
9:52 AM,82.9,21.0,10,29.93,-9999.0,South,5.8,-,N/A,,Unknown,190,2012-09-05 16:52:00
10:52 AM,87.1,23.0,10,29.92,-9999.0,SW,9.2,-,N/A,,Unknown,220,2012-09-05 17:52:00
11:52 AM,89.1,27.0,11,29.90,-9999.0,South,15.0,-,N/A,,Unknown,190,2012-09-05 18:52:00
12:52 PM,90.0,27.0,10,29.89,-9999.0,SSW,13.8,21.9,N/A,,Unknown,210,2012-09-05 19:52:00
1:52 PM,89.1,43.0,20,29.87,-9999.0,SW,20.7,-,N/A,,Unknown,220,2012-09-05 20:52:00
2:52 PM,90.0,42.1,19,29.86,-9999.0,WSW,11.5,20.7,N/A,,Unknown,250,2012-09-05 21:52:00
3:52 PM,87.1,37.0,17,29.86,-9999.0,SW,17.3,23.0,N/A,,Unknown,230,2012-09-05 22:52:00
4:52 PM,84.0,33.1,16,29.86,-9999.0,SW,19.6,-,N/A,,Unknown,230,2012-09-05 23:52:00
5:52 PM,82.9,30.9,15,29.88,-9999.0,SW,12.7,-,N/A,,Unknown,230,2012-09-06 00:52:00
6:52 PM,75.9,33.1,21,29.90,-9999.0,SW,8.1,-,N/A,,Unknown,220,2012-09-06 01:52:00
7:52 PM,72.0,35.1,26,29.90,-9999.0,SSW,8.1,-,N/A,,Unknown,210,2012-09-06 02:52:00
8:52 PM,70.0,35.1,28,29.91,-9999.0,SSW,6.9,-,N/A,,Unknown,200,2012-09-06 03:52:00
9:52 PM,66.9,36.0,32,29.91,-9999.0,Calm,Calm,-,N/A,,Unknown,0,2012-09-06 04:52:00
10:52 PM,64.0,36.0,35,29.91,-9999.0,North,4.6,-,N/A,,Unknown,10,2012-09-06 05:52:00
11:52 PM,63.0,37.0,38,29.91,-9999.0,ENE,4.6,-,N/A,,Unknown,70,2012-09-06 06:52:00